This is the latest recevied weather packets stored in our database for station/object KK4MOR. If no packets are shown the sender has not sent any weather packets the latest 10 day(s).
| Time | Temp. | Humidity | Pressure | Rain* | Wind** | Luminosity | Snow |
|---|---|---|---|---|---|---|---|
| 1777684519 | 13.33° C | 51% | 1013.4 hPa | 0 mm | - | - | - |
| 1777683606 | 13.33° C | 52% | 1013.4 hPa | 0 mm | - | - | - |
| 1777682706 | 13.89° C | 52% | 1013.1 hPa | 0 mm | - | - | - |
| 1777681806 | 13.89° C | 53% | 1012.9 hPa | 0 mm | - | - | - |
| 1777680908 | 14.44° C | 57% | 1012.5 hPa | 0 mm | - | - | - |
| 1777680006 | 15° C | 57% | 1012.1 hPa | 0 mm | - | - | - |
| 1777679104 | 15° C | 59% | 1011.8 hPa | 0 mm | - | - | - |
| 1777678202 | 15.56° C | 59% | 1011.9 hPa | 0 mm | - | - | - |
| 1777677302 | 15.56° C | 57% | 1011.9 hPa | 0 mm | - | - | - |
| 1777676464 | 16.11° C | 55% | 1011.9 hPa | 0 mm | - | - | - |
| 1777675564 | 16.11° C | 54% | 1011.3 hPa | 0 mm | - | - | - |
| 1777675503 | 16.11° C | 54% | 1011.3 hPa | 0 mm | - | - | - |
| 1777674686 | 16.11° C | 54% | 1011 hPa | 0 mm | - | - | - |
| 1777673778 | 16.67° C | 55% | 1011 hPa | 0 mm | - | - | - |
| 1777672858 | 17.22° C | 55% | 1011.1 hPa | 0 mm | - | - | - |
| 1777671957 | 17.22° C | 57% | 1011 hPa | 0 mm | - | - | - |
| 1777671054 | 17.78° C | 58% | 1011.4 hPa | 0 mm | - | - | - |
| 1777670153 | 18.33° C | 56% | 1011.7 hPa | 0 mm | - | - | - |
| 1777669251 | 18.33° C | 55% | 1011.9 hPa | 0 mm | - | - | - |
| 1777668350 | 18.89° C | 53% | 1011.8 hPa | 0 mm | - | - | - |
| 1777667447 | 18.33° C | 55% | 1012 hPa | 0 mm | - | - | - |
| 1777666546 | 18.33° C | 54% | 1012.2 hPa | 0 mm | - | - | - |
| 1777665645 | 18.33° C | 52% | 1012.5 hPa | 0 mm | - | - | - |
| 1777664749 | 18.33° C | 48% | 1013 hPa | 0 mm | - | - | - |
| 1777663844 | 18.33° C | 50% | 1013.1 hPa | 0 mm | - | - | - |
* Rain latest hour (hover to see other rain measurements)
** Current wind speed in m/s (hover to see current wind gust speed)